EW4939 Weather Reports


Display with metric or nautical units.
time (UTC)temp
F
wind
direction
speed
MPH
gust
MPH
rain 1hr
in
rain 24hr
in
rain mn
in
humidity
%
barometer
mb
20260903143601 87 261 2.0 2.0 0.00 0.00 0.00 68 1017.1
20260903143056 87 281 0.0 2.0 0.00 0.00 0.00 68 1017.1
20260903142551 87 341 0.0 2.0 0.00 0.00 0.00 68 1017.1
20260903142049 87 231 0.0 1.0 0.00 0.00 0.00 69 1017.0
20260903141549 87 187 0.0 2.0 0.00 0.00 0.00 69 1017.0
20260903141044 86 357 1.0 2.0 0.00 0.00 0.00 69 1017.0
20260903140539 86 191 0.0 3.0 0.00 0.00 0.00 70 1016.8
20260903140035 86 307 1.0 1.0 0.00 0.00 0.00 71 1017.1
20260903135531 86 294 1.0 3.0 0.00 0.00 0.00 70 1017.1
20260903135031 86 167 1.0 1.0 0.00 0.00 0.00 70 1017.0
20260903134530 86 280 0.0 2.0 0.00 0.00 0.00 70 1017.2
20260903134026 85 170 1.0 4.0 0.00 0.00 0.00 71 1017.2
20260903133524 85 218 0.0 2.0 0.00 0.00 0.00 71 1017.2
20260903133019 85 295 0.0 4.0 0.00 0.00 0.00 72 1017.3
20260903132514 84 212 0.0 3.0 0.00 0.00 0.00 73 1017.4
20260903132009 84 156 0.0 2.0 0.00 0.00 0.00 75 1017.4
20260903131504 83 159 0.0 0.0 0.00 0.00 0.00 75 1017.4
20260903131003 83 297 0.0 1.0 0.00 0.00 0.00 75 1017.4
20260903130458 82 201 0.0 0.0 0.00 0.00 0.00 76 1017.3
20260903125956 82 235 0.0 1.0 0.00 0.00 0.00 76 1017.7
20260903125456 81 248 0.0 0.0 0.00 0.00 0.00 79 1017.6
20260903124951 80 181 0.0 1.0 0.00 0.00 0.00 83 1017.6
20260903124446 78 173 0.0 2.0 0.00 0.00 0.00 84 1017.5
20260903123945 78 192 0.0 0.0 0.00 0.00 0.00 86 1017.5
20260903123439 78 191 0.0 0.0 0.00 0.00 0.00 86 1017.6
20260903122938 77 191 0.0 0.0 0.00 0.00 0.00 87 1017.5
20260903122432 77 191 0.0 0.0 0.00 0.00 0.00 88 1017.5
20260903121931 77 191 0.0 0.0 0.00 0.00 0.00 88 1017.5
20260903121426 77 191 0.0 0.0 0.00 0.00 0.00 89 1017.7
20260903120923 77 191 0.0 0.0 0.00 0.00 0.00 90 1017.5
20260903120421 76 191 0.0 0.0 0.00 0.00 0.00 89 1017.5
20260903115921 77 191 0.0 0.0 0.00 0.00 0.00 89 1017.5
20260903115420 77 191 0.0 0.0 0.00 0.00 0.00 89 1017.7
20260903114920 77 191 0.0 0.0 0.00 0.00 0.00 89 1017.5
20260903114416 78 191 0.0 0.0 0.00 0.00 0.00 88 1017.5
20260903113911 78 191 0.0 1.0 0.00 0.00 0.00 85 1017.3
20260903113407 78 192 0.0 0.0 0.00 0.00 0.00 84 1017.3
20260903112902 78 191 0.0 1.0 0.00 0.00 0.00 82 1017.3
20260903112358 78 191 0.0 1.0 0.00 0.00 0.00 82 1017.3
20260903111857 78 177 0.0 1.0 0.00 0.00 0.00 83 1017.2
20260903111357 78 289 0.0 1.0 0.00 0.00 0.00 84 1017.2
20260903110853 78 172 0.0 1.0 0.00 0.00 0.00 83 1017.2
20260903110348 78 171 0.0 1.0 0.00 0.00 0.00 84 1017.0
20260903105843 78 172 0.0 1.0 0.00 0.00 0.00 83 1017.0
20260903105339 78 288 0.0 1.0 0.00 0.00 0.00 87 1017.0
20260903104838 78 187 0.0 1.0 0.00 0.00 0.00 84 1016.9
20260903104333 78 187 0.0 0.0 0.00 0.00 0.00 83 1016.6
20260903103830 78 187 0.0 0.0 0.00 0.00 0.00 83 1016.7
20260903103326 79 260 0.0 0.0 0.00 0.00 0.00 83 1016.8
20260903102822 78 270 0.0 1.0 0.00 0.00 0.00 83 1016.9
20260903102321 78 194 0.0 0.0 0.00 0.00 0.00 84 1016.8
20260903101820 78 193 0.0 0.0 0.00 0.00 0.00 84 1016.7
20260903101316 78 193 0.0 0.0 0.00 0.00 0.00 85 1016.7
20260903100812 78 189 0.0 0.0 0.00 0.00 0.00 87 1016.7
20260903100311 78 189 0.0 0.0 0.00 0.00 0.00 84 1016.7
20260903095809 78 189 0.0 0.0 0.00 0.00 0.00 84 1016.8
20260903095305 78 189 0.0 0.0 0.00 0.00 0.00 84 1016.7
20260903094759 78 189 0.0 0.0 0.00 0.00 0.00 85 1016.8
20260903094253 77 185 0.0 1.0 0.00 0.00 0.00 87 1016.7
20260903093749 77 185 0.0 0.0 0.00 0.00 0.00 88 1016.6
20260903093244 76 185 1.0 1.0 0.00 0.00 0.00 89 1016.6
20260903092743 75 185 0.0 0.0 0.00 0.00 0.00 92 1016.5
20260903092239 75 185 0.0 1.0 0.00 0.00 0.00 93 1016.8
20260903091737 75 185 0.0 0.0 0.00 0.00 0.00 94 1016.7
20260903091232 75 185 0.0 1.0 0.00 0.00 0.00 93 1016.7
20260903090727 75 185 0.0 1.0 0.00 0.00 0.00 93 1016.8
20260903090226 75 185 0.0 1.0 0.00 0.00 0.00 93 1016.9
20260903085725 75 185 0.0 0.0 0.00 0.00 0.00 93 1016.7
20260903085220 75 185 0.0 0.0 0.00 0.00 0.00 93 1016.7
20260903084718 75 185 0.0 0.0 0.00 0.00 0.00 93 1016.5
20260903084213 75 185 0.0 0.0 0.00 0.00 0.00 92 1016.6
20260903083709 76 185 0.0 0.0 0.00 0.00 0.00 92 1016.6
20260903083209 76 185 0.0 0.0 0.00 0.00 0.00 92 1016.6
20260903082703 76 185 0.0 0.0 0.00 0.00 0.00 91 1016.5
20260903082159 76 185 0.0 1.0 0.00 0.00 0.00 92 1016.7
20260903081659 76 185 0.0 0.0 0.00 0.00 0.00 92 1016.7
20260903081155 76 185 0.0 0.0 0.00 0.00 0.00 93 1016.5
20260903080651 76 185 0.0 0.0 0.00 0.00 0.00 93 1016.6
20260903080148 76 185 0.0 0.0 0.00 0.00 0.00 92 1016.7
20260903075647 76 185 0.0 0.0 0.00 0.00 0.00 91 1016.5
20260903075142 76 185 0.0 0.0 0.00 0.00 0.00 91 1016.4
20260903074641 76 185 0.0 0.0 0.00 0.00 0.00 91 1016.6
20260903074137 77 185 0.0 0.0 0.00 0.00 0.00 91 1016.3
20260903073637 77 185 0.0 0.0 0.00 0.00 0.00 91 1016.6
20260903073133 77 185 0.0 0.0 0.00 0.00 0.00 91 1016.6
20260903072629 77 185 0.0 0.0 0.00 0.00 0.00 91 1016.6
20260903072125 77 185 0.0 0.0 0.00 0.00 0.00 91 1016.5
20260903071621 77 185 0.0 0.0 0.00 0.00 0.00 89 1016.4
20260903071117 77 185 0.0 0.0 0.00 0.00 0.00 89 1016.5
20260903070616 77 185 0.0 0.0 0.00 0.00 0.00 89 1016.4
20260903070113 77 185 0.0 1.0 0.00 0.00 0.00 89 1016.5
20260903065611 77 185 1.0 1.0 0.00 0.00 0.00 89 1016.5
20260903065106 77 185 0.0 0.0 0.00 0.00 0.00 89 1016.4
20260903064606 77 185 0.0 0.0 0.00 0.00 0.00 89 1016.5
20260903064101 77 185 0.0 0.0 0.00 0.00 0.00 88 1016.4
20260903063556 77 185 0.0 0.0 0.00 0.00 0.00 89 1016.7
20260903063052 77 185 0.0 0.0 0.00 0.00 0.00 89 1016.4
20260903062547 77 185 0.0 0.0 0.00 0.00 0.00 89 1016.6
20260903062043 77 185 0.0 0.0 0.00 0.00 0.00 90 1016.6
20260903061538 77 185 0.0 0.0 0.00 0.00 0.00 90 1016.6
20260903061037 77 185 0.0 0.0 0.00 0.00 0.00 89 1016.5
20260903060537 78 185 0.0 0.0 0.00 0.00 0.00 89 1016.6
20260903060032 78 185 0.0 0.0 0.00 0.00 0.00 88 1016.3
20260903055530 78 185 0.0 0.0 0.00 0.00 0.00 88 1016.5
20260903055029 78 185 0.0 0.0 0.00 0.00 0.00 89 1016.5
20260903054524 78 185 0.0 0.0 0.00 0.00 0.00 88 1016.5
20260903054020 78 185 0.0 0.0 0.00 0.00 0.00 86 1016.5
20260903053519 79 185 0.0 0.0 0.00 0.00 0.00 88 1016.4
20260903053016 79 185 0.0 0.0 0.00 0.00 0.00 87 1016.3
20260903052512 80 185 0.0 0.0 0.00 0.00 0.00 83 1016.4
20260903052008 80 185 0.0 0.0 0.00 0.00 0.00 83 1016.3
20260903051508 81 185 0.0 0.0 0.00 0.00 0.00 81 1016.3
20260903051004 79 181 0.0 1.0 0.00 0.00 0.00 83 1016.2
20260903050502 79 181 0.0 0.0 0.00 0.00 0.00 84 1016.2
20260903045957 79 181 0.0 0.0 0.00 0.00 0.00 85 1016.4
20260903045453 79 181 0.0 0.0 0.00 0.00 0.00 84 1016.4
20260903044949 79 181 0.0 0.0 0.00 0.00 0.00 86 1016.2
20260903044444 79 181 0.0 0.0 0.00 0.00 0.00 84 1016.2
20260903043940 79 181 0.0 1.0 0.00 0.00 0.00 84 1016.2
20260903043436 79 181 0.0 0.0 0.00 0.00 0.00 86 1016.4
20260903042934 79 181 0.0 0.0 0.00 0.00 0.00 86 1016.2
20260903042430 79 181 0.0 0.0 0.00 0.00 0.00 84 1016.1
20260903041926 79 181 0.0 0.0 0.00 0.00 0.00 84 1016.2
20260903041422 79 181 0.0 0.0 0.00 0.00 0.00 84 1016.3
20260903040917 80 181 0.0 0.0 0.00 0.00 0.00 83 1016.3
20260903040416 80 181 0.0 0.0 0.00 0.00 0.00 83 1016.2
20260903035912 80 181 0.0 1.0 0.00 0.00 0.00 81 1016.3
20260903035408 79 163 1.0 1.0 0.00 0.00 0.00 83 1016.3
20260903034903 80 163 0.0 1.0 0.00 0.00 0.00 84 1016.4
20260903034358 81 159 0.0 1.0 0.00 0.00 0.00 81 1016.5
20260903033853 80 159 0.0 1.0 0.00 0.00 0.00 80 1016.2
20260903033348 81 158 0.0 0.0 0.00 0.00 0.00 81 1016.4
20260903032847 82 158 0.0 2.0 0.00 0.00 0.00 79 1016.2
20260903032344 82 165 1.0 1.0 0.00 0.00 0.00 78 1016.4
20260903031839 82 165 0.0 0.0 0.00 0.00 0.00 78 1016.5
20260903031338 82 165 1.0 1.0 0.00 0.00 0.00 77 1016.4
20260903030834 81 165 1.0 1.0 0.00 0.00 0.00 78 1016.3
20260903030329 82 165 0.0 1.0 0.00 0.00 0.00 80 1016.4
20260903025826 83 165 1.0 1.0 0.00 0.00 0.00 76 1016.7
20260903025321 83 165 1.0 1.0 0.00 0.00 0.00 74 1016.6
20260903024820 83 177 1.0 1.0 0.00 0.00 0.00 76 1016.4
20260903024320 83 183 1.0 1.0 0.00 0.00 0.00 76 1016.7
20260903023815 82 184 0.0 1.0 0.00 0.00 0.00 76 1016.6
20260903023311 83 157 0.0 1.0 0.00 0.00 0.00 74 1016.7
20260903022807 84 157 0.0 1.0 0.00 0.00 0.00 73 1016.7
20260903022306 84 157 1.0 1.0 0.00 0.00 0.00 72 1016.9
20260903021805 84 157 0.0 1.0 0.00 0.00 0.00 73 1016.8
20260903021300 84 156 1.0 1.0 0.00 0.00 0.00 73 1016.7
20260903020800 85 165 1.0 2.0 0.00 0.00 0.00 72 1016.7
20260903020255 84 187 0.0 1.0 0.00 0.00 0.00 73 1016.6
20260903015750 85 187 0.0 1.0 0.00 0.00 0.00 72 1016.7
20260903015245 84 187 1.0 1.0 0.00 0.00 0.00 72 1016.7
20260903014741 84 187 1.0 1.0 0.00 0.00 0.00 73 1016.6
20260903014240 84 187 0.0 1.0 0.00 0.00 0.00 74 1016.7
20260903013735 84 187 1.0 1.0 0.00 0.00 0.00 73 1016.5
20260903013234 84 187 1.0 1.0 0.00 0.00 0.00 73 1016.7
20260903012733 85 187 0.0 1.0 0.00 0.00 0.00 73 1016.5
20260903012234 85 187 1.0 1.0 0.00 0.00 0.00 71 1016.6
20260903011728 85 187 1.0 1.0 0.00 0.00 0.00 72 1016.3
20260903011227 85 187 0.0 1.0 0.00 0.00 0.00 73 1016.5
20260903010723 85 187 0.0 1.0 0.00 0.00 0.00 72 1016.2
20260903010223 85 187 0.0 1.0 0.00 0.00 0.00 72 1016.4
20260903005722 85 187 0.0 1.0 0.00 0.00 0.00 72 1016.3
20260903005217 84 187 0.0 1.0 0.00 0.00 0.00 74 1016.1
20260903004713 84 187 0.0 0.0 0.00 0.00 0.00 75 1016.3
20260903004208 84 187 0.0 1.0 0.00 0.00 0.00 75 1016.1
20260903003704 84 187 0.0 0.0 0.00 0.00 0.00 75 1016.1
20260903003159 84 187 0.0 0.0 0.00 0.00 0.00 75 1016.2
20260903002654 85 187 0.0 0.0 0.00 0.00 0.00 75 1016.1
20260903002154 86 187 0.0 0.0 0.00 0.00 0.00 75 1016.0
20260903001649 87 187 0.0 1.0 0.00 0.00 0.00 68 1016.0
20260903001148 87 187 0.0 0.0 0.00 0.00 0.00 72 1016.1
20260903000644 88 187 1.0 1.0 0.00 0.00 0.00 67 1016.0
20260903000143 88 187 0.0 1.0 0.00 0.00 0.00 66 1016.1
20260902235643 88 187 0.0 1.0 0.00 0.00 0.00 65 1016.1
20260902235138 89 187 0.0 1.0 0.00 0.00 0.00 66 1016.0
20260902234637 89 187 0.0 1.0 0.00 0.00 0.00 64 1016.2
20260902234131 90 187 1.0 1.0 0.00 0.00 0.00 64 1016.2
20260902233626 90 177 0.0 0.0 0.00 0.00 0.00 62 1016.0
20260902233126 90 190 1.0 2.0 0.00 0.00 0.00 61 1016.0
20260902232625 91 170 2.0 3.0 0.00 0.00 0.00 61 1015.8
20260902232125 91 183 1.0 2.0 0.00 0.00 0.00 60 1016.0
20260902231624 91 171 1.0 3.0 0.00 0.00 0.00 60 1016.0
20260902231124 91 192 2.0 3.0 0.00 0.00 0.00 59 1016.2
20260902230620 92 188 2.0 3.0 0.00 0.00 0.00 59 1016.1
20260902230118 92 202 3.0 3.0 0.00 0.00 0.00 58 1016.2
20260902225613 92 192 2.0 4.0 0.00 0.00 0.00 58 1016.2
20260902225113 93 286 2.0 3.0 0.00 0.00 0.00 57 1016.0
20260902224612 93 251 0.0 1.0 0.00 0.00 0.00 58 1016.2
20260902224108 93 323 1.0 2.0 0.00 0.00 0.00 55 1016.3
20260902223604 94 261 1.0 2.0 0.00 0.00 0.00 54 1016.3
20260902223103 94 196 1.0 3.0 0.00 0.00 0.00 54 1016.3
20260902222601 94 267 0.0 3.0 0.00 0.00 0.00 54 1016.2
20260902222100 94 175 1.0 4.0 0.00 0.00 0.00 54 1016.3
20260902221556 95 205 0.0 4.0 0.00 0.00 0.00 54 1016.4
20260902221056 94 187 1.0 3.0 0.00 0.00 0.00 54 1016.3
20260902220551 95 211 0.0 3.0 0.00 0.00 0.00 53 1016.5
20260902220046 95 219 2.0 4.0 0.00 0.00 0.00 53 1016.4
20260902215542 95 196 0.0 3.0 0.00 0.00 0.00 54 1016.5
20260902215038 95 274 3.0 4.0 0.00 0.00 0.00 52 1016.4
20260902214538 95 221 0.0 1.0 0.00 0.00 0.00 53 1016.4
20260902214037 95 264 3.0 4.0 0.00 0.00 0.00 51 1016.5
20260902213533 95 276 1.0 4.0 0.00 0.00 0.00 52 1016.5
20260902213032 96 177 2.0 3.0 0.00 0.00 0.00 52 1016.3
20260902212528 96 235 2.0 3.0 0.00 0.00 0.00 51 1016.4
20260902212023 96 188 3.0 4.0 0.00 0.00 0.00 52 1016.3
20260902211520 95 197 1.0 3.0 0.00 0.00 0.00 52 1016.4
20260902211014 96 216 0.0 4.0 0.00 0.00 0.00 53 1016.5
20260902210514 96 169 2.0 3.0 0.00 0.00 0.00 52 1016.4
20260902210014 96 201 0.0 4.0 0.00 0.00 0.00 52 1016.3
20260902205508 95 186 1.0 6.0 0.00 0.00 0.00 53 1016.5
20260902205004 95 170 5.0 7.0 0.00 0.00 0.00 53 1016.5
20260902204503 94 264 0.0 3.0 0.00 0.00 0.00 54 1016.5
20260902203958 96 196 1.0 3.0 0.00 0.00 0.00 51 1016.6
20260902203454 96 239 2.0 4.0 0.00 0.00 0.00 52 1016.8
20260902202952 96 194 2.0 2.0 0.00 0.00 0.00 51 1016.6
20260902202449 96 201 2.0 3.0 0.00 0.00 0.00 51 1016.6
20260902201945 96 193 1.0 1.0 0.00 0.00 0.00 52 1016.4
20260902201440 95 234 0.0 2.0 0.00 0.00 0.00 52 1016.7
20260902200940 96 204 4.0 4.0 0.00 0.00 0.00 51 1016.8
20260902200435 96 4 1.0 2.0 0.00 0.00 0.00 52 1016.8
20260902195931 97 222 1.0 2.0 0.00 0.00 0.00 50 1016.8
20260902195426 97 183 1.0 3.0 0.00 0.00 0.00 50 1017.0
20260902194926 96 237 1.0 7.0 0.00 0.00 0.00 52 1017.0
20260902194426 96 246 3.0 6.0 0.00 0.00 0.00 50 1017.0
20260902193920 97 316 1.0 3.0 0.00 0.00 0.00 51 1017.2
20260902193417 96 170 0.0 3.0 0.00 0.00 0.00 53 1017.0
20260902192915 96 210 1.0 2.0 0.00 0.00 0.00 50 1017.1
20260902192414 96 200 3.0 6.0 0.00 0.00 0.00 51 1017.2
20260902191913 96 327 2.0 6.0 0.00 0.00 0.00 51 1017.3
20260902191409 96 51 1.0 3.0 0.00 0.00 0.00 51 1017.3
20260902190904 95 305 0.0 2.0 0.00 0.00 0.00 53 1017.4
20260902190405 95 284 2.0 3.0 0.00 0.00 0.00 52 1017.6
20260902185900 95 26 0.0 2.0 0.00 0.00 0.00 52 1017.5
20260902185356 95 150 1.0 3.0 0.00 0.00 0.00 52 1017.4
20260902184851 95 197 2.0 3.0 0.00 0.00 0.00 53 1017.5
20260902184346 95 69 1.0 3.0 0.00 0.00 0.00 54 1017.5
20260902183842 95 205 0.0 3.0 0.00 0.00 0.00 53 1017.5
20260902183338 95 184 3.0 4.0 0.00 0.00 0.00 53 1017.7
20260902182834 95 209 3.0 6.0 0.00 0.00 0.00 54 1017.6
20260902182330 94 284 4.0 6.0 0.00 0.00 0.00 53 1017.7
20260902181827 95 253 1.0 4.0 0.00 0.00 0.00 54 1017.5
20260902181322 94 207 2.0 3.0 0.00 0.00 0.00 53 1017.7
20260902180821 93 247 0.0 3.0 0.00 0.00 0.00 53 1017.6
20260902180317 92 311 0.0 3.0 0.00 0.00 0.00 56 1017.8
20260902175812 93 198 0.0 3.0 0.00 0.00 0.00 55 1017.9
20260902175308 93 276 1.0 3.0 0.00 0.00 0.00 55 1017.8
20260902174803 91 267 1.0 3.0 0.00 0.00 0.00 59 1017.9
20260902174300 93 194 2.0 3.0 0.00 0.00 0.00 56 1018.0
20260902173755 94 166 2.0 9.0 0.00 0.00 0.00 57 1018.0
20260902173255 93 313 2.0 2.0 0.00 0.00 0.00 57 1018.1
20260902172749 93 206 2.0 3.0 0.00 0.00 0.00 57 1018.1
20260902172249 93 204 4.0 6.0 0.00 0.00 0.00 58 1018.2
20260902171744 93 214 2.0 2.0 0.00 0.00 0.00 58 1018.1
20260902171239 93 188 2.0 6.0 0.00 0.00 0.00 59 1018.1
20260902170735 93 194 3.0 4.0 0.00 0.00 0.00 59 1018.1
20260902170231 92 202 1.0 4.0 0.00 0.00 0.00 61 1018.1
20260902165726 92 218 2.0 3.0 0.00 0.00 0.00 62 1018.4
20260902165220 92 194 0.0 3.0 0.00 0.00 0.00 62 1018.3
20260902164721 91 284 2.0 4.0 0.00 0.00 0.00 62 1018.4
20260902164220 91 171 2.0 4.0 0.00 0.00 0.00 61 1018.5
20260902163715 91 254 2.0 4.0 0.00 0.00 0.00 62 1018.4
20260902163215 91 193 1.0 3.0 0.00 0.00 0.00 62 1018.4
20260902162714 91 54 0.0 3.0 0.00 0.00 0.00 62 1018.3
20260902162208 91 181 2.0 3.0 0.00 0.00 0.00 61 1018.4
20260902161703 91 270 1.0 2.0 0.00 0.00 0.00 63 1018.3
20260902161159 90 311 1.0 3.0 0.00 0.00 0.00 64 1018.4
20260902160656 90 191 1.0 3.0 0.00 0.00 0.00 64 1018.5
20260902160150 90 172 1.0 2.0 0.00 0.00 0.00 65 1018.7
20260902155649 89 173 2.0 3.0 0.00 0.00 0.00 65 1018.6
20260902155147 89 246 0.0 3.0 0.00 0.00 0.00 66 1018.7
20260902154643 89 285 1.0 2.0 0.00 0.00 0.00 68 1018.7
20260902154137 89 268 0.0 3.0 0.00 0.00 0.00 69 1018.6
20260902153637 89 198 1.0 2.0 0.00 0.00 0.00 67 1018.6
20260902153132 89 201 2.0 3.0 0.00 0.00 0.00 68 1018.8
20260902152628 88 131 0.0 0.0 0.00 0.00 0.00 69 1018.8
20260902152123 88 184 2.0 3.0 0.00 0.00 0.00 68 1019.0
20260902151619 87 183 1.0 2.0 0.00 0.00 0.00 70 1018.6
20260902151118 87 3 0.0 3.0 0.00 0.00 0.00 71 1018.8
20260902150614 87 285 1.0 4.0 0.00 0.00 0.00 70 1019.0
20260902150110 87 188 0.0 1.0 0.00 0.00 0.00 71 1018.8
20260902145610 87 175 1.0 3.0 0.00 0.00 0.00 71 1018.9
20260902145109 87 190 1.0 2.0 0.00 0.00 0.00 72 1018.8
20260902144606 86 187 1.0 2.0 0.00 0.00 0.00 71 1018.8
20260902144106 86 229 0.0 1.0 0.00 0.00 0.00 72 1018.8